星链-31920 (STARLINK-31920 )

导读 | 豆包AI

STARLINK-31920是美国太空探索技术公司星链互联网卫星星座的一员,于2024年5月28日发射入轨,属于星链项目大规模组网部署的最新批次卫星。星链旨在构建全球卫星互联网,该卫星入轨后将补充提升星座覆盖密度,服务地面高速互联网接入,尤其覆盖偏远地区,目前已稳定在轨运行近20个月。

基本信息
目录编号:
59907
目录名称:
STARLINK-31920
国际标识:
2024-100Y
轨道中心:
EARTH
卫星名称:
星链-31920
卫星全名:
星链-31920 (STARLINK-31920 )
卫星状态:
在轨 (已飞行703 天)
发射日期:
2024-05-28 UTC
国别 :
美国 (US)
星等 :
--
轨道信息
数据来源 国际轨道数据
星历时间: 2026-04-30T22:00:02+0800
12小时前
查看轨道信息
半长轴: 6811.064km
偏心率: 0.0014094
轨道倾角: 42.994°
近地点辐角 82.973°
升交点赤经 153.877°
平近点角 208.125°
近地点: 423.327km
远地点: 442.527km
周期: 93.236分钟
每日圈数: 15.44473
详细信息
固有亮度:
5
最大亮度:
1.5
卫星平台:
Starlink v2.0 mini
覆盖范围:
全球
运营商:
太空探索技术公司
运营商所在国:
美国
制造商(研发单位):
太空探索技术公司
制造商所在国:
美国
使用方式:
暂无
卫星简介
星链(Starlink)计划是由太空探索技术公司(SpaceX)提出的一个巨型低轨卫星互联网星座项目,计划在2019年至2024年间在太空搭建由约1.2万颗卫星组成的“星链”网络,其中1584颗将部署在地球上空550千米处的近地轨道,并从2020年开始工作。该卫星仍在工作。
2D轨道图
3D轨道图
轨道高度分析图
轨道倾角分析图
轨道综合分析图
查看轨道综合分析图